Regional Weather Roundup
Issued by NWS

Home | Current Version | Previous Version | Text Only | Print | Product List | Glossary Off
Versions: 1 2 3 4 5 6 7 8 9 10 11 12 13 14 15 16 17 18 19 20 21 22 23 24 25 26 27 28 29 30 31 32 33 34 35 36 37 38 39 40 41 42 43 44 45 46 47 48 49 50

000
ASUS45 KCYS 110510
RWRWY

WYOMING REGIONAL WEATHER ROUNDUP
NATIONAL WEATHER SERVICE CHEYENNE WY
1000 PM MST SAT DEC 10 2016

NOTE:  "FAIR" INDICATES FEW OR NO CLOUDS BELOW 12,000 FEET
WITH NO SIGNIFICANT WEATHER AND/OR OBSTRUCTIONS TO VISIBILITY.

WYZ001-110600-
YELLOWSTONE NATIONAL PARK

CITY           SKY/WX    TMP DP  RH WIND       PRES   REMARKS
LK YELLOWSTONE   N/A     18  14  84 W5        29.75R WCI  11
W YELLOWSTONE  NOT AVBL

$$
WYZ002>013-054>058-071-098>099-110600-
NORTHERN WYOMING

CITY           SKY/WX    TMP DP  RH WIND       PRES   REMARKS
JACKSON        CLOUDY    30  27  86 W3        29.76R
CODY           FAIR      21  19  92 CALM      29.72R
GREYBULL       CLOUDY    22  14  71 S10       29.75R WCI  11
WORLAND        CLOUDY    26  21  81 SE9       29.75S WCI  17
SHERIDAN       CLOUDY    31  20  63 CALM      29.75R
BUFFALO        CLOUDY    31  21  66 N20       29.72R WCI  19
GILLETTE       CLOUDY    24  21  88 NW12      29.72R WCI  13
HULETT         CLOUDY    21  18  86 SW6       29.73R WCI  14
NEWCASTLE      FAIR      18  14  86 W12       29.69S WCI   5

$$
WYZ014>020-022>026-101>103-110600-
CENTRAL WYOMING

CITY           SKY/WX    TMP DP  RH WIND       PRES   REMARKS
BIG PINEY      FLURRIES  27  27 100 NW6       29.80R WCI  20
PINEDALE       CLOUDY    28  23  80 W8        29.78R WCI  20
DUBOIS         FAIR      28  16  59 W14       29.68R WCI  17
LANDER         FAIR      36  19  50 N10G20    29.69R WCI  28
RIVERTON       FAIR      29  24  82 NE8       29.70S WCI  21
CASPER         CLOUDY    28  24  85 E9        29.76R WCI  19
DOUGLAS        CLOUDY    31  23  72 NW14G24   29.75R WCI  21

$$
WYZ021-027>030-104>119-110600-
SOUTHERN WYOMING

CITY           SKY/WX    TMP DP  RH WIND       PRES   REMARKS
EVANSTON       LGT SNOW  30  27  88 SW10      29.87S VSB 3/4 WCI  21
KEMMERER       LGT SNOW  28  28 100 W16       29.84R VSB 3/4 WCI  17
FORT BRIDGER   SNOW      31  31 100 W10       29.90R VSB 1/2 WCI  22
ROCK SPRINGS   LGT SNOW  30  28  93 W17G28    29.84R VSB 1   WCI  18
DIXON          LGT SNOW  33  32  96 SW5       29.87S WCI  29
RAWLINS        CLOUDY    33  29  85 W20G28    29.78S WCI  21
SARATOGA       LGT SNOW  32  32 100 NW10G18   29.82R WCI  24
LARAMIE        CLOUDY    35  24  64 NW14      29.76R WCI  26
CHEYENNE       FAIR      41  23  48 NW13G20   29.69R
TORRINGTON     CLOUDY    47  29  49 W17       29.65R
PINE BLUFFS    FAIR      39  28  65 W12G20    29.69R WCI  32

$$



USA.gov is the U.S. government's official web portal to all federal, state and local government web resources and services.